Date,TemperatureHighF,TemperatureAvgF,TemperatureLowF,DewpointHighF,DewpointAvgF,DewpointLowF,HumidityHigh,HumidityAvg,HumidityLow,PressureMaxIn,PressureMinIn,WindSpeedMaxMPH,WindSpeedAvgMPH,GustSpeedMaxMPH,PrecipitationSumIn
2013-1-4,43.7,43.1,42.3,33.9,31.7,30.7,71,64,61,30.44,30.41,2,0,2,0.00
2013-1-5,53.8,46.8,39.6,40.5,32.5,26.9,72,58,42,30.47,30.30,6,0,7,0.00
2013-1-6,56.7,50.7,46.4,44.2,38.6,34.9,81,64,46,30.36,30.24,6,1,7,0.00
2013-1-7,61.5,49.7,40.5,40.8,36.2,33.4,85,62,38,30.39,30.30,6,1,6,0.00
2013-1-8,63.3,56.2,45.9,57.9,48.4,36.6,85,75,67,30.44,30.27,5,0,5,0.00
2013-1-9,70.2,65.5,61.7,65.6,62.8,57.9,96,91,84,30.39,30.27,5,1,7,44.43
2013-1-10,71.6,66.9,63.0,68.7,65.2,61.8,97,94,88,30.39,30.24,5,1,7,0.20
2013-1-11,74.7,67.7,61.3,69.9,65.5,60.5,97,93,81,30.30,30.18,4,0,4,44.17
2013-1-12,74.5,68.4,64.9,67.8,65.7,63.9,97,92,77,30.24,30.12,4,0,4,44.63
2013-1-13,74.3,69.4,66.0,69.2,67.1,64.8,97,93,82,30.18,30.09,5,0,5,0.08
2013-1-14,73.8,69.8,68.4,71.1,67.8,66.6,96,93,89,30.24,30.12,3,0,5,0.08
2013-1-15,73.9,69.5,34.3,69.8,67.6,34.3,100,94,84,30.18,30.09,4,0,4,0.34
2013-1-16,75.7,66.0,52.5,70.8,64.1,51.1,97,94,83,30.12,30.03,7,1,7,0.33
2013-1-17,52.5,44.0,41.0,51.2,36.0,27.5,96,74,55,30.36,30.09,16,3,16,0.08
2013-1-18,58.1,44.8,36.0,34.8,32.4,30.6,86,64,39,30.56,30.36,6,1,6,44.84
2013-1-19,63.1,49.4,34.7,45.0,38.0,29.5,84,67,47,30.53,30.33,4,0,4,0.08
2013-1-20,65.8,52.9,43.5,46.5,42.3,39.7,89,70,39,30.39,30.24,4,0,7,0.71
2013-1-21,66.0,53.4,42.8,43.1,39.5,36.2,91,62,37,30.33,30.18,6,1,6,0.00
2013-1-22,59.4,47.3,37.8,36.5,30.0,26.0,73,53,31,30.44,30.27,6,1,6,0.00
2013-1-23,64.8,48.1,34.0,45.8,37.0,27.5,88,68,43,30.50,30.39,3,0,458,0.00
2013-1-24,72.5,56.1,44.1,53.7,48.0,41.5,95,77,42,30.44,30.33,12,1,12,0.00
2013-1-25,70.7,57.1,45.7,59.5,51.0,43.8,95,82,53,30.39,30.27,4,0,5,45.30
2013-1-26,73.4,59.5,48.9,60.9,54.8,47.3,96,85,55,30.39,30.24,6,0,10,0.00
2013-1-27,71.2,59.4,50.2,56.4,53.0,47.1,96,81,56,30.41,30.36,4,0,4,0.00
2013-1-28,70.3,61.8,54.7,63.3,58.5,53.2,96,89,77,30.41,30.27,4,0,4,0.00
2013-1-29,73.0,66.6,57.6,68.6,64.5,56.4,97,93,84,30.27,30.06,4,0,4,0.08
2013-1-30,73.8,64.5,45.9,71.0,61.0,29.7,96,89,53,30.15,29.76,13,2,13,0.42
2013-1-31,57.4,45.1,34.5,33.8,28.1,23.8,79,54,28,30.41,30.15,8,1,13,0.00